Location: S�tio Afonso Gruber
(26.1760°S, 49.5250°W)
Time: 00:36:17
(UTC+00:00)

Cosmos 2016 Rocket - Pass Details

Date: 09 October 2020
Orbit: 946 x 1001 km, 83.0° (Epoch: 27 October)

Event Time Altitude Azimuth Distance (km) Brightness Sun altitude
Exits shadow 07:01:49 35° 342° (NNW) 1,521 4.7 -24.1°
Maximum altitude 07:04:35 74° 265° (W) 1,027 3.9 -23.5°
Drops below altitude 10° 07:10:58 10° 179° (S) 2,776 6.6 -22.1°
Sets 07:13:32 0° 177° (S) 3,737 7.3 -21.6°
